カタログに戻る

NUSAT-44 MARIA MITCHELL

運用中科学SSO
NORAD 59122·PAYLOAD·🇦🇷 Argentina

打ち上げ Mar 4, 2024 から Vandenberg Space Force Base

Loading…

次のパス (今後24時間)

TLE

最新Source: Space-Track

元期: Sep 14, 2026, 22:39 UTC

1 59122U 24043AA  26257.94408505  .00010329  00000-0  36129-3 0  9998
2 59122  97.5575  39.6341 0004005 277.3113  82.7672 15.29717877140997

AllMySatでNUSAT-44 MARIA MITCHELLをリアルタイム追跡

Download on the App Store